Drummond Island, MI

11:44 PM EDT on August 26, 2016 (GMT -0400)
Drummond Island

Weather History for KDRM - October, 2012

Change the Weather History Date:

Saturday, October 20, 2012

  Actual Average (KCIU) Record (KCIU)
Temperature  
Mean Temperature 50 °F -  
Max Temperature 56 °F 50 °F 66 °F (1979)
Min Temperature 44 °F 32 °F 21 °F (1983)
Degree Days  
Heating Degree Days 15    
Moisture  
Dew Point 44 °F    
Average Humidity 84    
Maximum Humidity 99    
Minimum Humidity 59    
Precipitation  
Precipitation 0.00 in - - ()
Sea Level Pressure  
Sea Level Pressure 29.67 in    
Wind  
Wind Speed 3 mph (NNW)    
Max Wind Speed 8 mph    
Max Gust Speed -    
Visibility 10 miles    
Events Rain    
Averages and records for this station are not official NWS values.
T = Trace of Precipitation, MM = Missing Value Source: NWS Daily Summary

Daily Weather History Graph

Daily Weather History Graph

Search for Another Location

Airport or City:

Trip Planner

Search our weather history database for the weather conditions in past years. The results will help you decide how hot, cold, wet, or windy it might be!

Date:

Astronomy

Oct. 20, 2012 Rise Set
Actual Time 7:59 AM EDT 6:39 PM EDT
Civil Twilight 7:28 AM EDT 7:09 PM EDT
Nautical Twilight 6:54 AM EDT 7:44 PM EDT
Astronomical Twilight 6:19 AM EDT 8:18 PM EDT
Moon 1:44 PM EDT (10/20) 11:15 PM EDT (10/20)
Length of Visible Light 11h 40m
Length of Day
10h 39m
Waxing Crescent, 34% of the Moon is Illuminated
Oct 20
Waxing Crescent
Oct 21
First Quarter
Oct 29
Full
Nov 6
Last Quarter
Nov 13
New

Hourly Weather History & Observations

Time (EDT) Temp. Windchill Dew Point Humidity Pressure Visibility Wind Dir Wind Speed Gust Speed Precip Events Conditions
12:15 AM 45.7 °F - 45.1 °F 98% 29.62 in 10.0 mi Calm Calm - N/A Rain Light Rain
12:35 AM 45.7 °F - 45.1 °F 98% 29.62 in 10.0 mi Calm Calm - N/A   Overcast
12:56 AM 45.9 °F 44.6 °F 45.1 °F 97% 29.61 in 10.0 mi NE 3.5 mph - N/A   Overcast
1:15 AM 46.0 °F 44.8 °F 45.0 °F 96% 29.61 in 10.0 mi NE 3.5 mph - N/A   Overcast
1:36 AM 46.4 °F 44.3 °F 45.1 °F 95% 29.61 in 10.0 mi NE 4.6 mph - N/A   Overcast
1:56 AM 46.4 °F 44.3 °F 45.5 °F 97% 29.61 in 10.0 mi NE 4.6 mph - N/A Rain Light Rain
2:15 AM 46.6 °F - 45.5 °F 96% 29.61 in 10.0 mi NE 4.6 mph - N/A   Overcast
2:36 AM 46.8 °F - 45.7 °F 96% 29.61 in 10.0 mi NE 3.5 mph - N/A   Overcast
2:55 AM 46.9 °F - 45.9 °F 96% 29.61 in 10.0 mi NE 3.5 mph - N/A   Overcast
3:15 AM 46.8 °F - 46.0 °F 97% 29.61 in 10.0 mi Calm Calm - N/A   Overcast
3:36 AM 47.3 °F - 46.6 °F 97% 29.61 in 10.0 mi ENE 3.5 mph - N/A   Overcast
3:55 AM 47.5 °F - 46.4 °F 96% 29.61 in 10.0 mi East 3.5 mph - N/A   Overcast
4:15 AM 47.3 °F - 46.4 °F 97% 29.61 in 10.0 mi Calm Calm - N/A   Overcast
4:36 AM 46.8 °F - 46.0 °F 97% 29.61 in 10.0 mi Calm Calm - N/A   Scattered Clouds
4:55 AM 46.4 °F - 45.9 °F 98% 29.61 in 10.0 mi Calm Calm - N/A   Mostly Cloudy
5:15 AM 46.4 °F - 46.0 °F 99% 29.61 in 10.0 mi Calm Calm - N/A   Overcast
5:35 AM 46.2 °F - 45.5 °F 97% 29.62 in 10.0 mi Calm Calm - N/A   Overcast
5:55 AM 45.7 °F - 45.3 °F 99% 29.62 in 7.0 mi Calm Calm - N/A   Overcast
6:15 AM 45.5 °F - 45.0 °F 98% 29.62 in 10.0 mi Calm Calm - N/A   Overcast
6:35 AM 45.5 °F - 45.0 °F 98% 29.62 in 10.0 mi Calm Calm - N/A   Overcast
6:56 AM 45.0 °F - 44.6 °F 99% 29.62 in 10.0 mi Calm Calm - N/A   Overcast
7:15 AM 44.8 °F - 44.6 °F 99% 29.63 in 10.0 mi Calm Calm - N/A   Overcast
7:35 AM 45.5 °F - 44.6 °F 97% 29.63 in 10.0 mi Calm Calm - N/A   Overcast
7:56 AM 45.7 °F - 44.2 °F 95% 29.63 in 10.0 mi Calm Calm - N/A   Overcast
8:15 AM 45.5 °F - 44.1 °F 95% 29.64 in 10.0 mi Calm Calm - N/A   Overcast
8:36 AM 46.2 °F 45.0 °F 44.1 °F 92% 29.64 in 10.0 mi North 3.5 mph - N/A   Overcast
8:56 AM 46.8 °F - 44.6 °F 92% 29.64 in 10.0 mi North 4.6 mph - N/A   Overcast
9:15 AM 47.3 °F - 44.6 °F 90% 29.64 in 10.0 mi North 5.8 mph - N/A   Overcast
9:36 AM 47.3 °F - 44.6 °F 90% 29.65 in 10.0 mi North 4.6 mph - N/A   Mostly Cloudy
9:55 AM 47.3 °F - 44.6 °F 90% 29.65 in 10.0 mi North 4.6 mph - N/A   Mostly Cloudy
10:16 AM 47.7 °F - 45.0 °F 90% 29.65 in 10.0 mi North 4.6 mph - N/A   Scattered Clouds
10:36 AM 47.8 °F - 44.6 °F 89% 29.65 in 10.0 mi North 6.9 mph - N/A   Mostly Cloudy
10:55 AM 48.9 °F - 45.0 °F 86% 29.65 in 10.0 mi North 5.8 mph - N/A   Mostly Cloudy
11:16 AM 49.8 °F - 45.0 °F 83% 29.65 in 10.0 mi North 5.8 mph - N/A   Scattered Clouds
11:35 AM 50.2 °F - 45.0 °F 82% 29.66 in 10.0 mi North 5.8 mph - N/A   Clear
11:55 AM 50.2 °F - 44.8 °F 82% 29.65 in 10.0 mi North 6.9 mph - N/A   Clear
12:16 PM 51.1 °F - 44.4 °F 78% 29.66 in 10.0 mi North 5.8 mph - N/A   Clear
12:35 PM 52.0 °F - 44.4 °F 75% 29.66 in 10.0 mi NNW 4.6 mph - N/A   Clear
12:56 PM 52.7 °F - 44.8 °F 74% 29.66 in 10.0 mi NNW 4.6 mph - N/A   Clear
1:15 PM 53.6 °F - 44.6 °F 72% 29.66 in 10.0 mi NW 5.8 mph - N/A   Clear
1:35 PM 53.1 °F - 43.7 °F 71% 29.66 in 10.0 mi NNW 4.6 mph - N/A   Clear
1:56 PM 53.6 °F - 43.0 °F 67% 29.66 in 10.0 mi North 4.6 mph - N/A   Scattered Clouds
2:15 PM 54.1 °F - 43.9 °F 68% 29.66 in 10.0 mi NW 5.8 mph - N/A   Mostly Cloudy
2:36 PM 54.1 °F - 43.9 °F 68% 29.66 in 10.0 mi NW 8.1 mph - N/A   Mostly Cloudy
2:56 PM 54.5 °F - 43.5 °F 66% 29.67 in 10.0 mi WNW 6.9 mph - N/A   Mostly Cloudy
3:15 PM 54.9 °F - 43.9 °F 66% 29.67 in 10.0 mi WNW 4.6 mph - N/A   Mostly Cloudy
3:36 PM 55.2 °F - 43.0 °F 63% 29.67 in 10.0 mi WNW 4.6 mph - N/A   Clear
3:55 PM 56.5 °F - 42.3 °F 59% 29.67 in 10.0 mi NW 4.6 mph - N/A   Clear
4:15 PM 55.4 °F - 42.4 °F 62% 29.68 in 10.0 mi WNW 4.6 mph - N/A   Clear
4:36 PM 55.6 °F - 42.8 °F 62% 29.68 in 10.0 mi West 5.8 mph - N/A   Clear
4:55 PM 56.3 °F - 43.2 °F 61% 29.68 in 10.0 mi WNW 4.6 mph - N/A   Clear
5:15 PM 55.4 °F - 43.9 °F 65% 29.69 in 10.0 mi WNW 4.6 mph - N/A   Clear
5:36 PM 54.3 °F - 44.4 °F 69% 29.69 in 10.0 mi NW 4.6 mph - N/A   Scattered Clouds
5:55 PM 55.0 °F - 43.5 °F 65% 29.69 in 10.0 mi WNW 4.6 mph - N/A   Scattered Clouds
6:15 PM 53.4 °F - 41.7 °F 65% 29.70 in 10.0 mi North 3.5 mph - N/A   Mostly Cloudy
6:36 PM 51.6 °F - 41.5 °F 68% 29.71 in 10.0 mi Calm Calm - N/A   Scattered Clouds
6:55 PM 50.4 °F - 40.6 °F 69% 29.71 in 10.0 mi Calm Calm - N/A   Clear
7:16 PM 48.0 °F - 41.4 °F 78% 29.72 in 10.0 mi Calm Calm - N/A   Scattered Clouds
7:36 PM 50.9 °F - 42.8 °F 74% 29.71 in 10.0 mi SW 4.6 mph - N/A   Mostly Cloudy
7:55 PM 51.6 °F - 43.0 °F 72% 29.73 in 10.0 mi WNW 3.5 mph - N/A   Overcast
8:16 PM 50.9 °F - 44.1 °F 77% 29.73 in 10.0 mi WNW 3.5 mph - N/A   Overcast
8:35 PM 50.9 °F - 43.9 °F 77% 29.74 in 10.0 mi Calm Calm - N/A   Overcast
8:55 PM 50.2 °F - 44.1 °F 79% 29.75 in 10.0 mi WNW 3.5 mph - N/A   Mostly Cloudy
9:16 PM 49.6 °F - 44.6 °F 83% 29.75 in 10.0 mi WNW 3.5 mph - N/A   Mostly Cloudy
9:35 PM 48.7 °F - 44.6 °F 86% 29.76 in 10.0 mi West 3.5 mph - N/A   Scattered Clouds
9:55 PM 47.8 °F - 44.6 °F 89% 29.77 in 10.0 mi WNW 3.5 mph - N/A   Clear
10:16 PM 47.1 °F - 44.2 °F 90% 29.77 in 10.0 mi Calm Calm - N/A   Clear
10:35 PM 47.3 °F - 45.0 °F 92% 29.78 in 10.0 mi West 3.5 mph - N/A   Clear
10:55 PM 48.4 °F - 45.0 °F 88% 29.78 in 10.0 mi West 4.6 mph - N/A   Scattered Clouds
11:16 PM 48.7 °F - 45.0 °F 87% 29.78 in 10.0 mi WNW 4.6 mph - N/A   Mostly Cloudy
11:35 PM 49.1 °F - 45.0 °F 86% 29.78 in 10.0 mi Calm Calm - N/A   Scattered Clouds
11:56 PM 49.1 °F - 44.8 °F 85% 29.78 in 10.0 mi West 4.6 mph - N/A   Mostly Cloudy